Simultaneous Nadir Overpasses (SNOs) Predictions

Prediction of SNOs between LANDSAT-8 and METOP-B Satellite Orbit:

Table of predicted SNOs for the next 14.0 days since TLE Epoch: 10/10/2014
Index Date (LANDSAT-8) Time (LANDSAT-8) Lat,Lon (LANDSAT-8) SZA (LANDSAT-8 ) Date (METOP-B) Time (METOP-B) Lat,Lon (METOP-B) SZA (METOP-B ) Distance(km) Time Diff (sec)
1 10/11/2014 17:49:39 81.12, -47.62 90.64 10/11/2014 17:48:41 81.11, -47.72 90.60 1.82 58
2 10/11/2014 18:39:05 -81.14, 120.38 89.30 10/11/2014 18:39:19 -81.14, 120.46 89.28 1.34 14
3 10/14/2014 13:23:53 81.12, 18.82 91.70 10/14/2014 13:22:59 81.12, 18.85 91.68 0.60 54
4 10/14/2014 14:13:19 -81.14,-173.17 88.23 10/14/2014 14:13:38 -81.13,-173.33 88.25 2.94 19
5 10/17/2014 08:58:08 81.11, 85.14 92.73 10/17/2014 08:57:19 81.11, 85.04 92.70 1.69 49
6
